EWG8EL EDDH-EGLL

Flight info

Callsign EWG8EL
Flight time 1h 16m
Altitude 36000
Route WSN5G/33 WSN N125 ITMIZ DCT ABNED L980 LOGAN
Aircraft A319/M-SDE3FGHIRWY/LB1

Departure

Time 2026-05-07 17:38
Airport Hamburg Helmut Schmidt Airport (EDDH)

Arrival

Time 2026-05-07 18:55
Airport London Heathrow Airport (EGLL)
Time Latitude Longitude Altitude Speed Heading
2026-05-07 17:09 53.63206 10.00363 49 ft 0 kts 86°
2026-05-07 17:30 53.63205 10.00333 48 ft 3 kts 86°
2026-05-07 17:30 53.63204 10.00302 48 ft 3 kts 86°
2026-05-07 17:30 53.63202 10.00270 48 ft 3 kts 86°
2026-05-07 17:31 53.63201 10.00239 48 ft 3 kts 86°
2026-05-07 17:31 53.63200 10.00210 48 ft 3 kts 90°
2026-05-07 17:31 53.63206 10.00182 48 ft 2 kts 146°
2026-05-07 17:31 53.63221 10.00175 45 ft 2 kts 177°
2026-05-07 17:32 53.63225 10.00174 46 ft 0 kts 176°
2026-05-07 17:33 53.63210 10.00177 48 ft 4 kts 174°
2026-05-07 17:34 53.63169 10.00185 45 ft 8 kts 174°
2026-05-07 17:34 53.63109 10.00193 48 ft 10 kts 175°
2026-05-07 17:34 53.63043 10.00157 48 ft 11 kts 215°
2026-05-07 17:34 53.62978 10.00086 48 ft 10 kts 212°
2026-05-07 17:35 53.62927 10.00014 48 ft 10 kts 236°
2026-05-07 17:35 53.62901 9.99931 47 ft 7 kts 243°
2026-05-07 17:35 53.62897 9.99916 48 ft 0 kts 243°
2026-05-07 17:36 53.62896 9.99914 48 ft 1 kts 243°
2026-05-07 17:36 53.62873 9.99836 45 ft 10 kts 243°
2026-05-07 17:36 53.62884 9.99727 45 ft 10 kts 333°
2026-05-07 17:36 53.62907 9.99710 45 ft 0 kts 335°
2026-05-07 17:37 53.62912 9.99706 45 ft 4 kts 335°
2026-05-07 17:37 53.63114 9.99533 46 ft 71 kts 333°
2026-05-07 17:37 53.63767 9.98968 48 ft 137 kts 333°
2026-05-07 17:38 53.64709 9.98132 397 ft 156 kts 336°
2026-05-07 17:38 53.65685 9.97309 1048 ft 157 kts 338°
2026-05-07 17:38 53.66679 9.96478 1683 ft 166 kts 338°
2026-05-07 17:38 53.67778 9.95570 2149 ft 185 kts 338°
2026-05-07 17:39 53.68995 9.94555 2605 ft 205 kts 338°
2026-05-07 17:39 53.70317 9.93421 3160 ft 220 kts 333°
2026-05-07 17:39 53.71374 9.91496 3801 ft 234 kts 294°
2026-05-07 17:39 53.71545 9.88699 4392 ft 253 kts 261°
2026-05-07 17:40 53.71071 9.85743 5049 ft 270 kts 250°
2026-05-07 17:40 53.70401 9.82720 5899 ft 279 kts 248°
2026-05-07 17:40 53.69698 9.79648 6904 ft 281 kts 249°
2026-05-07 17:40 53.69009 9.76544 7879 ft 284 kts 250°
2026-05-07 17:41 53.68341 9.73408 8881 ft 286 kts 251°
2026-05-07 17:41 53.67685 9.70218 9849 ft 289 kts 251°
2026-05-07 17:41 53.67000 9.66975 10510 ft 302 kts 250°
2026-05-07 17:41 53.66204 9.63555 10901 ft 322 kts 248°
2026-05-07 17:42 53.65339 9.60017 11623 ft 329 kts 248°
2026-05-07 17:42 53.64449 9.56439 12456 ft 333 kts 247°
2026-05-07 17:42 53.63548 9.52828 13295 ft 336 kts 247°
2026-05-07 17:42 53.62655 9.49231 14096 ft 339 kts 248°
2026-05-07 17:43 53.61749 9.45557 14820 ft 341 kts 248°
2026-05-07 17:43 53.60837 9.41840 15525 ft 345 kts 248°
2026-05-07 17:43 53.59917 9.38083 16221 ft 349 kts 248°
2026-05-07 17:43 53.59014 9.34273 16907 ft 352 kts 252°
2026-05-07 17:44 53.58566 9.30204 17594 ft 355 kts 263°
2026-05-07 17:44 53.58300 9.26055 18277 ft 359 kts 264°
2026-05-07 17:44 53.58035 9.21799 18875 ft 363 kts 264°
2026-05-07 17:44 53.57773 9.17555 19477 ft 366 kts 264°
2026-05-07 17:45 53.57512 9.13287 20118 ft 368 kts 264°
2026-05-07 17:45 53.57253 9.09043 20756 ft 370 kts 264°
2026-05-07 17:45 53.56991 9.04732 21406 ft 372 kts 264°
2026-05-07 17:45 53.56728 9.00390 21983 ft 375 kts 264°
2026-05-07 17:46 53.56461 8.95995 22555 ft 379 kts 264°
2026-05-07 17:46 53.56194 8.91573 23160 ft 382 kts 264°
2026-05-07 17:46 53.55924 8.87112 23741 ft 384 kts 264°
2026-05-07 17:46 53.55653 8.82624 24227 ft 387 kts 264°
2026-05-07 17:47 53.55376 8.78099 24681 ft 391 kts 264°
2026-05-07 17:47 53.54879 8.73600 25088 ft 395 kts 251°
2026-05-07 17:47 53.53796 8.69347 25546 ft 397 kts 246°
2026-05-07 17:47 53.52647 8.65106 26038 ft 399 kts 245°
2026-05-07 17:48 53.51488 8.60850 26467 ft 402 kts 245°
2026-05-07 17:48 53.50317 8.56572 26888 ft 405 kts 245°
2026-05-07 17:48 53.49130 8.52240 27331 ft 407 kts 245°
2026-05-07 17:48 53.47947 8.47925 27773 ft 410 kts 245°
2026-05-07 17:49 53.46749 8.43558 28170 ft 413 kts 245°
2026-05-07 17:49 53.45542 8.39167 28604 ft 416 kts 245°
2026-05-07 17:49 53.44326 8.34749 29057 ft 418 kts 245°
2026-05-07 17:49 53.43106 8.30325 29514 ft 419 kts 245°
2026-05-07 17:50 53.41892 8.25930 29933 ft 422 kts 245°
2026-05-07 17:50 53.40651 8.21450 30298 ft 424 kts 245°
2026-05-07 17:50 53.39400 8.16954 30624 ft 427 kts 245°
2026-05-07 17:50 53.38137 8.12417 30933 ft 430 kts 245°
2026-05-07 17:51 53.36875 8.07876 31250 ft 432 kts 245°
2026-05-07 17:51 53.35602 8.03305 31580 ft 434 kts 245°
2026-05-07 17:51 53.34319 7.98711 31904 ft 436 kts 245°
2026-05-07 17:51 53.33030 7.94115 32318 ft 436 kts 245°
2026-05-07 17:52 53.31740 7.89524 32740 ft 436 kts 244°
2026-05-07 17:52 53.30450 7.84941 33143 ft 436 kts 244°
2026-05-07 17:52 53.29154 7.80359 33528 ft 436 kts 244°
2026-05-07 17:52 53.27856 7.75773 33943 ft 436 kts 244°
2026-05-07 17:53 53.26559 7.71189 34302 ft 436 kts 244°
2026-05-07 17:53 53.25259 7.66603 34622 ft 437 kts 244°
2026-05-07 17:53 53.23952 7.62003 34909 ft 438 kts 244°
2026-05-07 17:53 53.22645 7.57416 35247 ft 437 kts 244°
2026-05-07 17:54 53.21342 7.52837 35581 ft 436 kts 244°
2026-05-07 17:54 53.20041 7.48274 35948 ft 435 kts 244°
2026-05-07 17:54 53.18738 7.43723 36070 ft 433 kts 244°
2026-05-07 17:54 53.17449 7.39234 36093 ft 428 kts 244°
2026-05-07 17:55 53.14896 7.30343 36093 ft 424 kts 244°
2026-05-07 17:55 53.12340 7.21491 36090 ft 424 kts 243°
2026-05-07 17:56 53.09775 7.12675 36089 ft 424 kts 243°
2026-05-07 17:56 53.07198 7.03827 36090 ft 424 kts 243°
2026-05-07 17:57 53.05059 6.96496 36090 ft 424 kts 243°
2026-05-07 17:57 53.02046 6.86214 36094 ft 423 kts 243°
2026-05-07 17:58 52.99459 6.77439 36095 ft 423 kts 243°
2026-05-07 17:58 52.96871 6.68682 36095 ft 422 kts 243°
2026-05-07 17:59 52.94275 6.59939 36089 ft 422 kts 243°
2026-05-07 17:59 52.91679 6.51215 36070 ft 422 kts 243°
2026-05-07 18:00 52.89082 6.42509 36076 ft 421 kts 243°
2026-05-07 18:00 52.86477 6.33825 36072 ft 421 kts 243°
2026-05-07 18:01 52.83875 6.25155 36069 ft 421 kts 243°
2026-05-07 18:01 52.81262 6.16504 36073 ft 420 kts 243°
2026-05-07 18:02 52.77339 6.03571 36078 ft 419 kts 242°
2026-05-07 18:03 52.74720 5.94972 36075 ft 419 kts 242°
2026-05-07 18:03 52.72092 5.86374 36074 ft 419 kts 242°
2026-05-07 18:04 52.69477 5.77860 36068 ft 419 kts 242°
2026-05-07 18:04 52.66833 5.69289 36069 ft 419 kts 242°
2026-05-07 18:05 52.64186 5.60712 36072 ft 419 kts 242°
2026-05-07 18:05 52.61538 5.52164 36069 ft 419 kts 242°
2026-05-07 18:06 52.58882 5.43644 36076 ft 418 kts 242°
2026-05-07 18:06 52.56234 5.35146 36075 ft 418 kts 242°
2026-05-07 18:07 52.53577 5.26653 36077 ft 418 kts 242°
2026-05-07 18:07 52.50911 5.18178 36076 ft 417 kts 242°
2026-05-07 18:08 52.48237 5.09727 36071 ft 417 kts 242°
2026-05-07 18:08 52.45555 5.01275 36069 ft 417 kts 242°
2026-05-07 18:09 52.42875 4.92837 36073 ft 417 kts 242°
2026-05-07 18:09 52.40187 4.84406 36076 ft 417 kts 242°
2026-05-07 18:10 52.37518 4.76064 36078 ft 416 kts 242°
2026-05-07 18:10 52.34831 4.67680 36076 ft 416 kts 242°
2026-05-07 18:11 52.32135 4.59323 36074 ft 415 kts 242°
2026-05-07 18:11 52.29432 4.50971 36074 ft 415 kts 242°
2026-05-07 18:12 52.26729 4.42628 36070 ft 415 kts 242°
2026-05-07 18:12 52.24020 4.34309 36073 ft 415 kts 241°
2026-05-07 18:13 52.21307 4.25998 36074 ft 415 kts 241°
2026-05-07 18:13 52.18595 4.17723 36073 ft 414 kts 242°
2026-05-07 18:14 52.15878 4.09447 36079 ft 414 kts 241°
2026-05-07 18:14 52.13157 4.01199 36081 ft 413 kts 241°
2026-05-07 18:15 52.10427 3.92974 36080 ft 413 kts 241°
2026-05-07 18:15 52.07711 3.84798 36088 ft 413 kts 241°
2026-05-07 18:16 52.04983 3.76593 36090 ft 413 kts 241°
2026-05-07 18:16 52.02246 3.68403 36099 ft 413 kts 241°
2026-05-07 18:17 51.99505 3.60224 36095 ft 412 kts 241°
2026-05-07 18:17 51.96755 3.52058 36093 ft 412 kts 241°
2026-05-07 18:18 51.94009 3.43931 36094 ft 412 kts 241°
2026-05-07 18:18 51.91257 3.35799 36101 ft 411 kts 241°
2026-05-07 18:19 51.88503 3.27679 36098 ft 411 kts 241°
2026-05-07 18:19 51.85816 3.19525 36092 ft 411 kts 247°
2026-05-07 18:20 51.84487 3.10572 36084 ft 411 kts 263°
2026-05-07 18:20 51.84003 3.02857 36081 ft 412 kts 263°
2026-05-07 18:21 51.83400 2.93718 36081 ft 412 kts 263°
2026-05-07 18:21 51.82786 2.84517 36084 ft 412 kts 263°
2026-05-07 18:22 51.82170 2.75320 36083 ft 412 kts 263°
2026-05-07 18:22 51.81965 2.72273 35956 ft 413 kts 263°
2026-05-07 18:22 51.81548 2.66111 35622 ft 412 kts 263°
2026-05-07 18:22 51.81235 2.61509 35379 ft 411 kts 263°
2026-05-07 18:23 51.80920 2.56928 35129 ft 410 kts 263°
2026-05-07 18:23 51.80605 2.52360 34886 ft 407 kts 263°
2026-05-07 18:23 51.80288 2.47847 34453 ft 403 kts 262°
2026-05-07 18:23 51.79969 2.43356 33926 ft 401 kts 262°
2026-05-07 18:24 51.79651 2.38897 33401 ft 397 kts 262°
2026-05-07 18:24 51.79336 2.34488 32918 ft 393 kts 262°
2026-05-07 18:24 51.79020 2.30122 32427 ft 390 kts 262°
2026-05-07 18:24 51.78709 2.25800 31934 ft 386 kts 262°
2026-05-07 18:25 51.78400 2.21506 31476 ft 382 kts 263°
2026-05-07 18:25 51.78126 2.17317 31014 ft 379 kts 264°
2026-05-07 18:25 51.77880 2.13101 30571 ft 375 kts 264°
2026-05-07 18:25 51.77649 2.08918 30119 ft 372 kts 264°
2026-05-07 18:26 51.77419 2.04777 29640 ft 368 kts 264°
2026-05-07 18:26 51.77186 2.00679 29224 ft 364 kts 264°
2026-05-07 18:26 51.76950 1.96639 28811 ft 360 kts 264°
2026-05-07 18:26 51.76709 1.92635 28417 ft 356 kts 264°
2026-05-07 18:27 51.76467 1.88665 28016 ft 353 kts 264°
2026-05-07 18:27 51.76227 1.84747 27611 ft 349 kts 264°
2026-05-07 18:27 51.75988 1.80862 27209 ft 346 kts 264°
2026-05-07 18:27 51.75749 1.77020 26810 ft 342 kts 263°
2026-05-07 18:28 51.75511 1.73210 26406 ft 339 kts 263°
2026-05-07 18:28 51.75273 1.69443 26002 ft 336 kts 263°
2026-05-07 18:28 51.75035 1.65712 25580 ft 333 kts 263°
2026-05-07 18:28 51.74800 1.62002 25169 ft 331 kts 263°
2026-05-07 18:29 51.74567 1.58304 24700 ft 334 kts 263°
2026-05-07 18:29 51.74331 1.54550 24192 ft 338 kts 263°
2026-05-07 18:29 51.74095 1.50825 23692 ft 338 kts 263°
2026-05-07 18:29 51.73856 1.47045 23117 ft 338 kts 263°
2026-05-07 18:30 51.73616 1.43281 22614 ft 337 kts 263°
2026-05-07 18:30 51.73375 1.39532 22110 ft 336 kts 263°
2026-05-07 18:30 51.73131 1.35789 21607 ft 335 kts 263°
2026-05-07 18:30 51.72885 1.32054 21106 ft 335 kts 263°
2026-05-07 18:31 51.72635 1.28322 20602 ft 334 kts 263°
2026-05-07 18:31 51.72384 1.24590 20100 ft 334 kts 263°
2026-05-07 18:31 51.72135 1.20860 19600 ft 335 kts 263°
2026-05-07 18:31 51.71889 1.17123 19098 ft 335 kts 263°
2026-05-07 18:32 51.71641 1.13381 18588 ft 336 kts 263°
2026-05-07 18:32 51.71390 1.09623 18046 ft 337 kts 263°
2026-05-07 18:32 51.71136 1.05869 17531 ft 336 kts 263°
2026-05-07 18:32 51.70879 1.02129 17030 ft 335 kts 263°
2026-05-07 18:33 51.70620 0.98403 16597 ft 333 kts 262°
2026-05-07 18:33 51.70362 0.94687 16137 ft 332 kts 262°
2026-05-07 18:33 51.70108 0.91012 15660 ft 331 kts 262°
2026-05-07 18:33 51.69854 0.87341 15343 ft 326 kts 262°
2026-05-07 18:34 51.69604 0.83724 14877 ft 325 kts 262°
2026-05-07 18:34 51.69349 0.80106 14406 ft 324 kts 262°
2026-05-07 18:34 51.69095 0.76508 13874 ft 325 kts 261°
2026-05-07 18:34 51.68840 0.72921 13445 ft 320 kts 261°
2026-05-07 18:35 51.68585 0.69358 12921 ft 319 kts 261°
2026-05-07 18:35 51.68335 0.65833 12481 ft 315 kts 261°
2026-05-07 18:35 51.68088 0.62345 12051 ft 311 kts 262°
2026-05-07 18:35 51.67841 0.58901 11630 ft 307 kts 261°
2026-05-07 18:36 51.67595 0.55496 11207 ft 304 kts 262°
2026-05-07 18:36 51.67351 0.52135 10803 ft 301 kts 261°
2026-05-07 18:36 51.67108 0.48806 10396 ft 298 kts 262°
2026-05-07 18:36 51.66869 0.45535 10171 ft 288 kts 261°
2026-05-07 18:37 51.66636 0.42365 9791 ft 284 kts 261°
2026-05-07 18:37 51.66402 0.39215 9277 ft 283 kts 261°
2026-05-07 18:37 51.66167 0.36097 8852 ft 278 kts 262°
2026-05-07 18:37 51.65938 0.33024 8423 ft 275 kts 262°
2026-05-07 18:38 51.65704 0.29879 8109 ft 290 kts 262°
2026-05-07 18:38 51.65470 0.26729 8070 ft 276 kts 262°
2026-05-07 18:38 51.65244 0.23676 8078 ft 273 kts 262°
2026-05-07 18:38 51.65019 0.20660 8082 ft 271 kts 261°
2026-05-07 18:39 51.64793 0.17646 8079 ft 272 kts 262°
2026-05-07 18:39 51.64573 0.14620 8079 ft 272 kts 263°
2026-05-07 18:39 51.64466 0.11576 8081 ft 274 kts 266°
2026-05-07 18:39 51.64375 0.08509 8081 ft 274 kts 266°
2026-05-07 18:40 51.64291 0.05445 8082 ft 274 kts 266°
2026-05-07 18:40 51.64215 0.02392 8080 ft 273 kts 266°
2026-05-07 18:40 51.64135 -0.00667 8080 ft 273 kts 266°
2026-05-07 18:40 51.64053 -0.03719 8077 ft 274 kts 266°
2026-05-07 18:41 51.63964 -0.06753 8079 ft 275 kts 266°
2026-05-07 18:41 51.63869 -0.09830 8081 ft 275 kts 266°
2026-05-07 18:41 51.63774 -0.12908 8082 ft 275 kts 266°
2026-05-07 18:41 51.63675 -0.16029 8083 ft 276 kts 266°
2026-05-07 18:42 51.63573 -0.19109 8084 ft 276 kts 266°
2026-05-07 18:42 51.63475 -0.22191 8084 ft 275 kts 266°
2026-05-07 18:42 51.63376 -0.25263 8084 ft 275 kts 266°
2026-05-07 18:42 51.63279 -0.28331 7953 ft 273 kts 266°
2026-05-07 18:43 51.63182 -0.31374 7667 ft 272 kts 266°
2026-05-07 18:43 51.63084 -0.34420 7412 ft 273 kts 266°
2026-05-07 18:43 51.62980 -0.37462 7145 ft 270 kts 266°
2026-05-07 18:43 51.62876 -0.40421 7047 ft 258 kts 266°
2026-05-07 18:44 51.62773 -0.43215 7052 ft 244 kts 266°
2026-05-07 18:44 51.62671 -0.45917 7059 ft 241 kts 266°
2026-05-07 18:44 51.62574 -0.48606 7055 ft 241 kts 266°
2026-05-07 18:44 51.62476 -0.51296 7055 ft 241 kts 266°
2026-05-07 18:45 51.62377 -0.53982 7056 ft 240 kts 266°
2026-05-07 18:45 51.62282 -0.56661 6925 ft 239 kts 266°
2026-05-07 18:45 51.62183 -0.59325 6603 ft 238 kts 266°
2026-05-07 18:45 51.62076 -0.61984 6276 ft 238 kts 266°
2026-05-07 18:46 51.61965 -0.64643 5945 ft 238 kts 266°
2026-05-07 18:46 51.61857 -0.67261 5639 ft 237 kts 266°
2026-05-07 18:46 51.61602 -0.69866 5322 ft 236 kts 254°
2026-05-07 18:46 51.61114 -0.72377 5005 ft 235 kts 251°
2026-05-07 18:47 51.60600 -0.74864 4696 ft 234 kts 250°
2026-05-07 18:47 51.59771 -0.77077 4371 ft 232 kts 226°
2026-05-07 18:47 51.58618 -0.78867 4080 ft 230 kts 221°
2026-05-07 18:47 51.57446 -0.80577 3994 ft 222 kts 221°
2026-05-07 18:48 51.56333 -0.82186 3999 ft 207 kts 221°
2026-05-07 18:48 51.55240 -0.83562 3987 ft 194 kts 202°
2026-05-07 18:48 51.53945 -0.83997 4049 ft 191 kts 184°
2026-05-07 18:48 51.52622 -0.84115 4004 ft 189 kts 181°
2026-05-07 18:49 51.51356 -0.83707 4002 ft 188 kts 148°
2026-05-07 18:49 51.50465 -0.82224 3866 ft 184 kts 124°
2026-05-07 18:49 51.49772 -0.80518 3647 ft 179 kts 121°
2026-05-07 18:49 51.49135 -0.78881 3506 ft 164 kts 121°
2026-05-07 18:50 51.48537 -0.77349 3093 ft 161 kts 121°
2026-05-07 18:50 51.47950 -0.75836 3010 ft 161 kts 121°
2026-05-07 18:50 51.47615 -0.74140 3014 ft 162 kts 93°
2026-05-07 18:50 51.47623 -0.72321 2962 ft 163 kts 89°
2026-05-07 18:51 51.47636 -0.70501 2801 ft 163 kts 90°
2026-05-07 18:51 51.47647 -0.68685 2602 ft 163 kts 90°
2026-05-07 18:51 51.47658 -0.66871 2387 ft 162 kts 90°
2026-05-07 18:51 51.47668 -0.65063 2169 ft 162 kts 91°
2026-05-07 18:52 51.47678 -0.63251 1950 ft 162 kts 91°
2026-05-07 18:52 51.47688 -0.61444 1728 ft 162 kts 91°
2026-05-07 18:52 51.47697 -0.59628 1501 ft 163 kts 91°
2026-05-07 18:52 51.47706 -0.57826 1279 ft 156 kts 91°
2026-05-07 18:53 51.47715 -0.56170 1069 ft 142 kts 92°
2026-05-07 18:53 51.47723 -0.54639 852 ft 134 kts 91°
2026-05-07 18:53 51.47729 -0.53170 682 ft 129 kts 92°
2026-05-07 18:53 51.47735 -0.51734 514 ft 128 kts 92°
2026-05-07 18:54 51.47741 -0.50326 338 ft 127 kts 92°
2026-05-07 18:54 51.47748 -0.48898 184 ft 126 kts 92°
2026-05-07 18:54 51.47753 -0.47527 88 ft 111 kts 91°
2026-05-07 18:54 51.47757 -0.46521 91 ft 63 kts 89°
2026-05-07 18:55 51.47719 -0.46160 86 ft 18 kts 140°
2026-05-07 18:55 51.47656 -0.46090 89 ft 8 kts 146°
2026-05-07 18:55 51.47641 -0.46074 87 ft 2 kts 147°
2026-05-07 18:55 51.47617 -0.46056 87 ft 4 kts 161°
2026-05-07 18:56 51.47578 -0.46067 86 ft 7 kts 208°
2026-05-07 18:56 51.47521 -0.46110 90 ft 9 kts 225°
2026-05-07 18:56 51.47515 -0.46226 86 ft 11 kts 270°
2026-05-07 18:56 51.47516 -0.46351 86 ft 11 kts 270°
2026-05-07 18:57 51.47515 -0.46454 86 ft 7 kts 269°
2026-05-07 18:57 51.47514 -0.46527 86 ft 2 kts 269°
2026-05-07 18:57 51.47514 -0.46571 86 ft 6 kts 270°
2026-05-07 18:57 51.47515 -0.46632 86 ft 2 kts 270°
2026-05-07 18:58 51.47515 -0.46677 86 ft 6 kts 270°
2026-05-07 18:58 51.47488 -0.46755 89 ft 10 kts 203°
2026-05-07 18:58 51.47413 -0.46738 90 ft 12 kts 167°
2026-05-07 18:58 51.47323 -0.46725 86 ft 15 kts 181°
2026-05-07 18:59 51.47218 -0.46722 86 ft 14 kts 180°
2026-05-07 18:59 51.47118 -0.46723 86 ft 10 kts 180°
2026-05-07 18:59 51.47040 -0.46709 88 ft 12 kts 156°
2026-05-07 18:59 51.46962 -0.46628 90 ft 14 kts 146°
2026-05-07 19:00 51.46875 -0.46532 90 ft 16 kts 145°
2026-05-07 19:00 51.46784 -0.46433 87 ft 16 kts 145°
2026-05-07 19:00 51.46747 -0.46338 89 ft 16 kts 94°
2026-05-07 19:00 51.46748 -0.46158 86 ft 17 kts 89°
2026-05-07 19:01 51.46749 -0.45964 86 ft 18 kts 89°
2026-05-07 19:01 51.46749 -0.45760 86 ft 19 kts 89°
2026-05-07 19:01 51.46751 -0.45547 86 ft 19 kts 90°
2026-05-07 19:01 51.46750 -0.45333 86 ft 18 kts 90°
2026-05-07 19:02 51.46755 -0.45194 86 ft 10 kts 62°
2026-05-07 19:02 51.46801 -0.45180 86 ft 4 kts 358°
2026-05-07 19:02 51.46823 -0.45181 86 ft 2 kts 359°
2026-05-07 19:02 51.46828 -0.45181 86 ft 0 kts 359°